Home > Weather > Horsens > Past weeks

Flag for Denmark Weather for the Past 2 Weeks in Horsens, Denmark

Now
36 °F

Fog.


Feels Like: 31 °F
Forecast: 30 / 40 °F
Wind: 6 mph from West

Location: Billund Lufthavn

Current Time: Feb 10, 2016 at 3:57:15 AM

Latest Report: Feb 10, 2016 at 3:20 AM


Visibility: 1 mi

Pressure: 28.97 "Hg

Humidity: 100%

Dew point: 36 °F

Location of HorsensLocation

Historic Weather in Horsens — Graph

°F

Horsens Temperature Yesterday

Maximum temperature yesterday: 43 °F (at 12:20 AM)
Minimum temperature yesterday: 36 °F (at 9:50 PM)
Average temperature yesterday: 41 °F

High & Low Weather Summary for the Past Weeks

 TemperatureHumidityPressure
High50 °F (Jan 27, 8:50 PM)100% (Jan 26, 2:50 AM)30.09 "Hg (Jan 26, 2:50 AM)
Low30 °F (Feb 1, 1:50 AM)62% (Jan 29, 5:20 PM)28.85 "Hg (Feb 8, 10:20 PM)
Average42 °F89%29.55 "Hg
* Reported Jan 26 2:20 AM — Feb 10 2:20 AM, Horsens, Weather by CustomWeather, © 2016

Note: Actual official high and low records may vary slightly from our data, if they occured in-between our weather recording intervals... More about our weather records

Advertising

Horsens Weather History for the Previous 24 Hours

 ConditionsComfort  
Time TempWeatherWind HumidityBarometerVisibility
2:20 AM
Wed, Feb 10
36 °FFog.5 mph100%28.97 "Hg1 mi
1:20 AM36 °FFog.3 mph100%28.94 "Hg1 mi
12:20 AM36 °FFog.1 mph100%28.94 "Hg1 mi
11:50 PM
Tue, Feb 9
36 °FFog.1 mph100%28.94 "Hg2 mi
11:20 PM36 °FOvercast.1 mph100%28.94 "Hg4 mi
10:20 PM37 °FPassing clouds.5 mph93%28.94 "Hg3 mi
9:50 PM36 °FPassing clouds.3 mph100%28.94 "Hg4 mi
9:20 PM37 °FOvercast.2 mph100%28.94 "HgN/A
8:50 PM37 °FPassing clouds.3 mph100%28.97 "Hg4 mi
8:20 PM39 °FPassing clouds.5 mph93%28.97 "HgN/A
7:50 PM39 °FOvercast.3 mph93%28.97 "HgN/A
7:20 PM39 °FPassing clouds.5 mph93%28.97 "HgN/A
6:50 PM39 °FPartly cloudy.6 mph93%28.97 "HgN/A
6:20 PM41 °FPassing clouds.8 mph87%29.00 "HgN/A
5:50 PM39 °FPassing clouds.6 mph93%29.00 "HgN/A
4:50 PM41 °FPartly sunny.7 mph87%29.00 "HgN/A
4:20 PM41 °FBroken clouds.10 mph87%29.00 "HgN/A
3:20 PM43 °FScattered clouds.13 mph81%29.00 "HgN/A
2:50 PM43 °FScattered clouds.16 mph76%29.00 "HgN/A
2:20 PM43 °FScattered clouds.16 mph76%29.00 "HgN/A
1:50 PM43 °FScattered clouds.15 mph81%29.00 "HgN/A
1:20 PM43 °FPassing clouds.15 mph87%29.03 "HgN/A
12:50 PM43 °FPartly sunny.15 mph87%29.03 "HgN/A
12:20 PM43 °FPartly sunny.17 mph87%29.03 "HgN/A
11:20 AM41 °FSprinkles. Broken clouds.16 mph93%29.03 "Hg4 mi
10:50 AM41 °FSprinkles. Partly sunny.16 mph93%29.03 "Hg4 mi
10:20 AM41 °FSprinkles. Broken clouds.17 mph93%29.03 "Hg4 mi
9:50 AM41 °FBroken clouds.17 mph93%29.03 "HgN/A
9:20 AM41 °FSprinkles. Partly sunny.17 mph93%29.00 "Hg4 mi
8:50 AM43 °FSprinkles. Partly sunny.16 mph93%29.00 "HgN/A
8:20 AM41 °FSprinkles. Partly sunny.13 mph93%29.00 "HgN/A
7:50 AM41 °FSprinkles. Passing clouds.17 mph93%29.00 "Hg5 mi
6:50 AM43 °FPassing clouds.8 mph87%28.97 "HgN/A
6:20 AM41 °FPassing clouds.12 mph93%28.97 "HgN/A
5:50 AM43 °FPassing clouds.9 mph87%28.97 "HgN/A
5:20 AM43 °FOvercast.10 mph87%28.97 "HgN/A
4:50 AM41 °FOvercast.12 mph93%28.97 "HgN/A
4:20 AM41 °FDrizzle. Fog.16 mph100%28.94 "Hg1 mi
3:50 AM43 °FOvercast.14 mph87%28.94 "HgN/A
3:20 AM43 °FSprinkles. Mostly cloudy.15 mph93%28.91 "HgN/A
Weather by CustomWeather, © 2016

See weather overviewHow to use our weather pages